Idabel, OK

10:02 PM CDT on April 26, 2017 (GMT -0500)
Idabel

Weather History for K4O4 - October, 2012

Change the Weather History Date:

Friday, October 12, 2012

  Actual Average (KPRX) Record (KPRX)
Temperature  
Mean Temperature 74 °F -  
Max Temperature 80 °F 74 °F 91 °F (2015)
Min Temperature 68 °F 53 °F 50 °F (2001)
Cooling Degree Days 9    
Growing Degree Days 24 (Base 50)    
Moisture  
Dew Point 65 °F    
Average Humidity 81    
Maximum Humidity 88    
Minimum Humidity 58    
Precipitation  
Precipitation 0.07 in - - ()
Sea Level Pressure  
Sea Level Pressure 30.16 in    
Wind  
Wind Speed 5 mph (SSE)    
Max Wind Speed 12 mph    
Max Gust Speed -    
Visibility 10 miles    
Events      
Averages and records for this station are not official NWS values.
T = Trace of Precipitation, MM = Missing Value Source: NWS Daily Summary

Daily Weather History Graph

Daily Weather History Graph

Search for Another Location

Airport or City:

Trip Planner

Search our weather history database for the weather conditions in past years. The results will help you decide how hot, cold, wet, or windy it might be!

Date:

Astronomy

Oct. 12, 2012 Rise Set
Actual Time 7:22 AM CDT 6:48 PM CDT
Civil Twilight 6:57 AM CDT 7:13 PM CDT
Nautical Twilight 6:28 AM CDT 7:42 PM CDT
Astronomical Twilight 5:59 AM CDT 8:11 PM CDT
Moon 4:14 AM CDT (10/12) 4:52 PM CDT (10/12)
Length of Visible Light 12h 16m
Length of Day
11h 26m
Waning Crescent, 10% of the Moon is Illuminated
Oct 12
Waning Crescent
Oct 15
New
Oct 21
First Quarter
Oct 29
Full
Nov 6
Last Quarter

Hourly Weather History & Observations

Time (CDT) Temp. Heat Index Dew Point Humidity Pressure Visibility Wind Dir Wind Speed Gust Speed Precip Events Conditions
12:35 AM 69.8 °F - 64.4 °F 83% 30.14 in 10.0 mi SSE 5.8 mph - N/A   Clear
12:55 AM 69.8 °F - 64.4 °F 83% 30.14 in 10.0 mi SSE 4.6 mph - N/A   Clear
1:15 AM 69.8 °F - 64.4 °F 83% 30.13 in 10.0 mi SSE 6.9 mph - N/A   Clear
1:35 AM 69.8 °F - 64.4 °F 83% 30.13 in 10.0 mi South 6.9 mph - N/A   Clear
1:55 AM 69.8 °F - 64.4 °F 83% 30.14 in 10.0 mi South 6.9 mph - N/A   Clear
2:15 AM 68.0 °F - 64.4 °F 88% 30.14 in 10.0 mi South 5.8 mph - N/A   Clear
2:35 AM 68.0 °F - 64.4 °F 88% 30.15 in 10.0 mi South 4.6 mph - N/A   Clear
2:55 AM 68.0 °F - 64.4 °F 88% 30.15 in 10.0 mi South 3.5 mph - N/A   Mostly Cloudy
3:15 AM 68.0 °F - 64.4 °F 88% 30.14 in 10.0 mi South 3.5 mph - N/A   Mostly Cloudy
3:55 AM 68.0 °F - 64.4 °F 88% 30.15 in 10.0 mi Calm Calm - N/A   Mostly Cloudy
4:15 AM 68.0 °F - 64.4 °F 88% 30.15 in 10.0 mi SE 4.6 mph - N/A   Mostly Cloudy
4:35 AM 68.0 °F - 64.4 °F 88% 30.14 in 10.0 mi SE 3.5 mph - N/A   Scattered Clouds
4:55 AM 68.0 °F - 64.4 °F 88% 30.15 in 10.0 mi Calm Calm - N/A   Scattered Clouds
5:15 AM 68.0 °F - 64.4 °F 88% 30.15 in 10.0 mi ESE 3.5 mph - N/A   Mostly Cloudy
5:35 AM 69.8 °F - 64.4 °F 83% 30.15 in 10.0 mi ESE 3.5 mph - N/A   Scattered Clouds
5:55 AM 68.0 °F - 64.4 °F 88% 30.16 in 10.0 mi SE 3.5 mph - N/A   Scattered Clouds
6:15 AM 68.0 °F - 64.4 °F 88% 30.16 in 10.0 mi SE 3.5 mph - N/A   Scattered Clouds
6:35 AM 68.0 °F - 64.4 °F 88% 30.16 in 10.0 mi South 5.8 mph - N/A   Scattered Clouds
6:55 AM 69.8 °F - 64.4 °F 83% 30.16 in 10.0 mi South 5.8 mph - N/A   Scattered Clouds
7:15 AM 69.8 °F - 64.4 °F 83% 30.17 in 10.0 mi South 5.8 mph - N/A   Scattered Clouds
7:35 AM 68.0 °F - 64.4 °F 88% 30.17 in 10.0 mi South 5.8 mph - N/A   Scattered Clouds
7:55 AM 68.0 °F - 64.4 °F 88% 30.18 in 7.0 mi SSW 4.6 mph - N/A   Scattered Clouds
8:15 AM 68.0 °F - 64.4 °F 88% 30.18 in 7.0 mi Calm Calm - N/A   Clear
8:35 AM 69.8 °F - 66.2 °F 88% 30.19 in 10.0 mi South 3.5 mph - N/A   Clear
9:15 AM 73.4 °F - 68.0 °F 83% 30.20 in 10.0 mi SSW 6.9 mph - N/A   Clear
9:35 AM 73.4 °F - 68.0 °F 83% 30.20 in 10.0 mi SW 6.9 mph - N/A   Scattered Clouds
9:55 AM 73.4 °F - 66.2 °F 78% 30.21 in 10.0 mi SSW 4.6 mph - N/A   Scattered Clouds
10:15 AM 73.4 °F - 68.0 °F 83% 30.22 in 10.0 mi SW 4.6 mph - N/A   Scattered Clouds
10:35 AM 73.4 °F - 66.2 °F 78% 30.23 in 10.0 mi South 4.6 mph - N/A   Mostly Cloudy
10:55 AM 73.4 °F - 66.2 °F 78% 30.23 in 10.0 mi South 8.1 mph - N/A   Mostly Cloudy
11:15 AM 73.4 °F - 66.2 °F 78% 30.23 in 10.0 mi SSE 5.8 mph - N/A   Overcast
11:35 AM 73.4 °F - 66.2 °F 78% 30.22 in 10.0 mi ESE 3.5 mph - N/A   Overcast
12:15 PM 77.0 °F - 66.2 °F 69% 30.20 in 10.0 mi SSE 3.5 mph - N/A   Mostly Cloudy
12:35 PM 78.8 °F - 66.2 °F 65% 30.19 in 10.0 mi South 6.9 mph - N/A   Mostly Cloudy
12:55 PM 80.6 °F 82.7 °F 66.2 °F 61% 30.19 in 10.0 mi SSE 8.1 mph - N/A   Mostly Cloudy
1:35 PM 80.6 °F 82.3 °F 64.4 °F 58% 30.18 in 10.0 mi South 4.6 mph - N/A   Mostly Cloudy
2:55 PM 80.6 °F 82.3 °F 64.4 °F 58% 30.15 in 10.0 mi SSE 9.2 mph - N/A   Scattered Clouds
3:35 PM 78.8 °F - 64.4 °F 61% 30.15 in 10.0 mi South 11.5 mph - N/A   Overcast
3:55 PM 77.0 °F - 68.0 °F 74% 30.15 in 7.0 mi Calm Calm - 0.02 in   Overcast
4:15 PM 73.4 °F - 68.0 °F 83% 30.16 in 5.0 mi NNW 4.6 mph - 0.03 in   Overcast
4:35 PM 71.6 °F - 68.0 °F 88% 30.15 in 7.0 mi ESE 4.6 mph - 0.05 in   Mostly Cloudy
4:55 PM 73.4 °F - 68.0 °F 83% 30.15 in 10.0 mi East 8.1 mph - 0.05 in   Scattered Clouds
5:15 PM 73.4 °F - 68.0 °F 83% 30.14 in 10.0 mi East 5.8 mph - N/A   Scattered Clouds
5:35 PM 73.4 °F - 68.0 °F 83% 30.14 in 10.0 mi East 5.8 mph - N/A   Scattered Clouds
5:55 PM 73.4 °F - 68.0 °F 83% 30.14 in 10.0 mi East 5.8 mph - N/A   Scattered Clouds
6:15 PM 75.2 °F - 69.8 °F 83% 30.14 in 10.0 mi East 3.5 mph - N/A   Scattered Clouds
6:35 PM 75.2 °F - 68.0 °F 78% 30.15 in 10.0 mi East 4.6 mph - N/A   Scattered Clouds
6:55 PM 73.4 °F - 68.0 °F 83% 30.15 in 10.0 mi East 5.8 mph - N/A   Mostly Cloudy
7:15 PM 73.4 °F - 68.0 °F 83% 30.14 in 10.0 mi ESE 4.6 mph - N/A   Scattered Clouds
7:55 PM 71.6 °F - 64.4 °F 78% 30.13 in 10.0 mi SE 6.9 mph - N/A   Clear
8:15 PM 71.6 °F - 62.6 °F 73% 30.13 in 10.0 mi SE 8.1 mph - N/A   Clear
8:35 PM 71.6 °F - 62.6 °F 73% 30.13 in 10.0 mi SE 8.1 mph - N/A   Clear
8:55 PM 71.6 °F - 62.6 °F 73% 30.14 in 10.0 mi SE 9.2 mph - N/A   Clear
9:15 PM 71.6 °F - 62.6 °F 73% 30.14 in 10.0 mi ESE 4.6 mph - N/A   Clear
9:35 PM 69.8 °F - 62.6 °F 78% 30.14 in 10.0 mi ENE 4.6 mph - N/A   Clear
10:15 PM 68.0 °F - 62.6 °F 83% 30.14 in 10.0 mi ESE 6.9 mph - N/A   Clear
10:55 PM 68.0 °F - 64.4 °F 88% 30.14 in 7.0 mi ESE 5.8 mph - N/A   Clear
11:15 PM 68.0 °F - 64.4 °F 88% 30.14 in 7.0 mi East 5.8 mph - N/A   Clear
11:35 PM 68.0 °F - 64.4 °F 88% 30.13 in 5.0 mi East 5.8 mph - N/A   Clear